Погода в Сигаево

Россия / Удмуртская Республика     56°25′24″N   53°46′39″E
темп.,
°C
ветер,
м/с
пор.,
м/с
влажн.,
%
обл.,
%
осадки,
мм/ч
давл.,
гПа
погр.,
м
21 апреля, ср
ср2101:00+2юв22520 0.0 103211
04:00+1вюв22554 0.0 103216
07:00+3юв275197 0.0 1032209
10:00+8ююв583676 0.0 1031781
13:00+11ююв71031100 0.0 10291268
16:00+11ююв61034100 0.0 10281361
19:00+9ююв51142100 0.0 1028442
22:00+8ююв51345100 0.0 1027547
22 апреля, чт
чт2201:00+6ю61260100 0.1 1027970
04:00+4ююв71492100 1.0 1027938
07:00+3ю71496100 0.6 1027790
10:00+4ю61196100 0.8 1028701
13:00+3ю61096100 0.8 1029637
16:00+3ююв5994100 1.6 1029706
19:00+4ю51195100 0.6 1029645
22:00+4ю5997100 0.6 1029603
23 апреля, пт
пт2301:00+4ю4897100 0.0 1028452
04:00+3ююв4798100 0.0 1028394
07:00+4ююв3698100 0.0 1029307
10:00+5ю3588100 0.0 1029474
13:00+8ю3476100 0.0 1029675
16:00+10юв236581 0.0 10281024
19:00+8юв3677100 0.0 1028310
22:00+6в3583100 0.0 1027168
24 апреля, сб
сб2401:00+6всв3782100 0.0 1026261
04:00+4всв3893100 0.0 1024260
07:00+5всв4889100 0.0 1022387
10:00+5всв3593100 0.7 1020229
13:00+6всв3895100 0.9 1018400
16:00+6всв2497100 2.0 1017205
19:00+6всв3797100 0.7 1015275
22:00+5всв2498100 1.0 1013150
25 апреля, вс
вс2501:00+5в1298100 0.3 101284
04:00+5ююв1198100 0.8 101132
07:00+5ю2398100 0.5 101189
10:00+6юв2597100 0.9 1010230
13:00+9ююз6779100 0.2 10091204
16:00+4зюз81295100 1.6 1010700
19:00+5з8168266 0.0 1013983
22:00+3юз38915 0.0 1014154